Regional Weather Roundup
Issued by NWS Jackson, KY

Home | Current Version | Previous Version | Text Only | Print | Product List | Glossary On
Versions: 1 2 3 4 5 6 7 8 9 10 11 12 13 14 15 16 17 18 19 20 21 22 23 24 25 26 27 28 29 30 31 32 33 34 35 36 37 38 39 40 41 42 43 44 45 46 47 48 49 50
000
ASUS43 KJKL 270910
RWRJKL

EAST KENTUCKY HOURLY WEATHER ROUNDUP
NATIONAL WEATHER SERVICE JACKSON KY
500 AM EDT WED JUL 27 2016

NOTE: "FAIR" INDICATES FEW OR NO CLOUDS BELOW 12,000 FEET WITH
NO SIGNIFICANT WEATHER AND/OR OBSTRUCTIONS TO VISIBILITY.

* THESE REPORTS ARE NOT UNDER NWS QUALITY CONTROL AND MAY NOT
  REPORT WEATHER SUCH AS PRECIPITATION AND FOG.

KYZ079-080-083-085-087-088-110-112-115-119-120-271000
...EASTERN KENTUCKY...

CITY           SKY/WX    TMP DP  RH WIND       PRES   REMARKS
JACKSON        CLEAR     73  70  90 CALM      30.02F
LONDON         CLEAR     74  71  91 CALM      30.02S
SOMERSET*      MOCLDY    72  72 100 CALM      30.01F
MONTICELLO*    RAIN     N/A N/A N/A W13G18    30.03R
WILLIAMSBURG*  SUNNY     72  72 100 CALM      30.03R
MIDDLESBORO*   CLOUDY    73  72  98 CALM      30.04R
HARLAN APT*    CLOUDY    72  70  94 CALM      30.06R
PIKE CO APT*     N/A     73  73  99 S3        30.03S
BIG SANDY APT* MOSUNNY   73  72  98 CALM      30.02S
MOREHEAD APT*  FOG       70  70 100 CALM      30.03R VSB 1/2
ASHLAND*       CLOUDY    72  72 100 CALM      29.98R
$$

KYZ035-036-041-042-044-050-067-078-099-271000
...CENTRAL KENTUCKY...

CITY           SKY/WX    TMP DP  RH WIND       PRES   REMARKS
MT STERLING*   CLEAR     70  70 100 CALM      30.02S
FLEMING/MASON* FOG       70  70  99 CALM      30.02S VSB 1/2
DANVILLE*      PTCLDY    72  72 100 CALM      30.02R
LEXINGTON      PTCLDY    74  70  87 CALM      30.00F
FRANKFORT      MOCLDY    73  71  93 CALM      29.99R FOG
LOUISVILLE     MOCLDY    78  72  81 E3        29.98R
LEBANON*         N/A     73  73 100 CALM      30.00S FOG
GLASGOW*       PTCLDY    75  75 100 CALM      29.97F
BOWLING GREEN  PTCLDY    79  76  90 CALM      29.97S
$$

KYZ091>093-OHZ055-061-077-WVZ005-015-034-035-042-271000
...SOUTHERN OHIO/WEST VIRGINIA...

CITY           SKY/WX    TMP DP  RH WIND       PRES   REMARKS
COVINGTON      CLOUDY    75  73  93 CALM      30.00S
COLUMBUS       CLOUDY    74  62  66 E3        29.99S
DAYTON         MOCLDY    70  68  93 CALM      30.01S
WILMINGTON     CLOUDY    71  71 100 CALM      30.01S FOG
HUNTINGTON     FOG       72  71  97 NE3       30.00R VSB 1/2
CHARLESTON     FOG       72  71  97 CALM      30.01S VSB 1/8
PINEVILLE*       N/A     69  66  90 MISG      30.10F FOG
BECKLEY          N/A     67  65  93 CALM      30.09F
BLUEFIELD        N/A     69  67  93 SW3       30.12S
LOGAN CO APT*  FOG       72  72 100 CALM      30.03S VSB<1/4
$$

VAZ002-007-008-TNZ017-027-036-066-071-271000
...SOUTHWEST VIRGINIA/EAST TENNESSEE...

CITY           SKY/WX    TMP DP  RH WIND       PRES   REMARKS
WISE*            N/A     70  68  94 CALM      30.12S
JONESVILLE*      N/A     73  72  94 CALM      30.06F
ABINGDON*        N/A     72  71  96 CALM      30.09S
BRISTOL        CLOUDY    72  70  93 CALM      30.05S
MORRISTOWN*    PTSUNNY   75  73  94 CALM      30.03R
SEVIERVILLE*   SUNNY     73  70  88 CALM      30.02R
KNOXVILLE      PTCLDY    76  72  87 SW6       30.01S
OAK RIDGE      PTCLDY    78  71  79 CALM      30.03R
CROSSVILLE     CLEAR     73  69  87 VRB3      30.07R
NASHVILLE      MOCLDY    74  72  93 S3        29.98S
$$

...KEY TO REMARKS...
VSB - VISIBILITY IN MILES
WCI - WIND CHILL INDEX
HX  - HEAT INDEX

$$



USA.gov is the U.S. government's official web portal to all federal, state and local government web resources and services.